Wetbulb
46.31 42.53 39.22 42.41 43.28 43.66 41.29 37.93 37.16 39.56 43.85 41.34 40.45 40.98 41.98 44.62 44.83 44.34 44.53 43.84 45.39 47.50 48.27 49.50 50.72 50.90 49.71 49.60 49.83 50.73 52.62 53.61 56.75 58.00 57.87 57.47 57.13 59.59 60.87 65.18 65.81 66.58 66.21 64.19
40.10 38.41 44.16 46.41 45.82 42.70 40.37 37.63 36.28 39.76 43.33 41.07 39.09 39.42 41.47 42.84 42.93 43.37 43.25 43.05 43.18 42.75 41.85 42.49 44.02 46.25 46.75 47.11 48.38 48.96 51.26 52.62 54.34 58.33 58.23 58.49 58.72 59.16 59.55 62.21 64.86 64.82 62.88 64.00
36.97 41.33 45.18 43.94 40.90 39.63 37.93 37.00 36.87 36.53 38.84 39.91 37.72 35.41 37.44 40.85 42.78 42.32 40.76 40.04 39.37 38.79 38.48 39.66 40.81 40.23 41.88 42.37 44.04 47.38 49.33 50.87 52.20 54.76 58.26 58.25 59.30 57.28 58.27 61.52 61.68 60.51 62.47 61.65
38.56 42.93 41.07 39.63 38.15 39.14 34.15 40.45 38.83 37.29 33.60 28.55 35.77 27.25 34.92 36.44 37.11 36.18 33.67 34.67 35.49 36.48 37.97 38.99 40.35 41.01 41.62 42.02 42.37 43.34 45.57 49.12 50.70 52.03 54.52 56.61 56.93 55.75 57.07 58.71 61.57 60.75 62.14 61.57
36.65 39.07 38.66 37.06 37.03 39.06 35.65 38.99 36.88 36.58 32.40 27.84 30.71 26.27 28.13 35.07 33.14 32.94 32.97 34.46 35.94 36.98 39.14 40.45 41.74 43.19 43.71 44.27 44.13 42.87 42.96 45.46 47.89 50.39 51.95 55.46 57.16 57.47 58.15 59.51 61.24 60.40 60.50 60.19
37.92 42.66 39.19 37.18 39.55 38.20 39.10 35.70 34.16 32.67 29.91 22.53 27.65 26.19 25.43 30.15 32.71 31.94 33.65 36.15 37.80 38.41 39.86 42.63 44.60 45.24 44.70 45.62 45.78 44.99 42.54 43.37 44.67 48.44 50.72 53.24 55.54 57.51 57.88 58.65 60.63 60.52 59.13 58.93
35.46 36.85 38.61 39.95 34.61 36.86 35.26 29.00 21.00 19.94 21.33 22.33 30.02 26.85 27.85 31.46 34.35 35.04 35.22 35.64 37.69 38.27 39.56 41.58 43.95 43.11 44.82 44.50 44.74 45.59 44.85 42.78 43.45 45.38 49.95 52.48 55.37 57.62 58.25 59.46 60.40 59.44 59.62 59.30
26.76 26.72 35.20 38.78 34.35 31.27 30.25 28.45 21.06 16.38 17.19 21.14 29.19 22.05 27.90 32.49 34.13 35.54 37.03 36.86 38.51 38.78 40.43 42.01 43.43 44.43 44.81 45.62 45.61 45.12 44.47 43.04 43.25 43.66 49.40 51.41 54.15 57.58 58.52 60.08 59.40 59.73 59.17 59.25
26.92 27.79 37.52 38.29 37.66 35.63 30.15 24.68 30.95 23.85 26.06 19.14 23.53 27.07 32.93 34.90 34.19 35.67 35.84 37.46 36.32 39.19 41.14 41.16 40.97 41.30 42.72 43.29 43.68 44.14 43.65 43.55 42.80 43.76 48.93 50.49 53.09 55.51 58.41 58.69 57.96 57.27 57.95 59.93
30.57 24.76 33.70 37.06 37.62 35.94 30.61 32.92 23.63 24.61 17.31 16.72 19.81 21.89 25.47 31.40 32.75 34.89 34.03 35.24 36.81 39.07 40.82 40.97 40.39 40.81 42.50 42.65 43.73 43.90 43.40 42.37 41.50 43.31 48.29 51.93 53.30 55.42 59.64 58.67 57.37 56.94 56.43 58.88
31.02 27.65 27.86 32.61 29.37 28.35 28.00 25.90 26.82 24.72 23.81 19.90 17.07 19.59 32.52 32.50 33.47 32.85 32.82 34.37 35.34 36.25 37.57 38.04 39.28 41.00 42.34 42.38 41.74 42.96 41.10 40.57 44.69 46.52 48.41 51.24 53.58 55.56 58.65 58.71 57.79 57.63 57.23 58.04
31.95 27.35 22.50 26.42 33.19 34.19 30.10 26.28 26.76 20.73 16.70 21.74 19.81 20.03 35.54 32.42 33.11 33.96 32.57 34.52 35.26 36.52 37.36 37.48 38.10 39.00 41.81 40.95 40.21 41.55 43.75 44.31 46.15 47.66 48.29 50.74 53.04 54.56 52.62 58.27 58.46 58.48 56.75 56.33
33.01 24.29 16.85 20.40 23.48 27.47 24.71 27.23 28.42 24.38 19.54 19.44 17.04 19.26 31.73 33.45 35.61 35.42 32.90 33.96 34.85 35.17 36.40 36.43 36.58 37.78 40.58 40.70 40.15 42.39 42.07 42.70 44.66 45.59 46.59 48.28 51.94 52.31 51.44 51.72 58.10 58.48 57.37 56.20
36.70 27.48 22.01 19.09 21.49 22.09 23.78 26.53 27.58 23.76 19.73 17.94 20.91 23.08 28.61 31.65 32.53 33.94 32.99 32.59 33.61 35.25 35.95 35.30 35.26 36.13 39.20 40.78 40.51 40.53 41.16 42.25 42.72 43.15 44.26 46.37 49.69 52.81 53.53 54.16 57.28 57.98 57.28 56.62
32.23 24.50 24.82 26.29 27.75 27.73 26.49 26.24 26.62 21.96 23.57 20.81 23.92 23.75 28.37 31.22 31.90 29.94 31.39 32.74 34.37 35.04 35.67 36.00 35.54 35.91 37.42 39.66 39.60 39.68 40.22 41.11 42.25 42.04 42.47 44.15 48.56 52.58 54.48 54.57 56.82 58.22 58.55 58.60
30.48 23.45 25.18 23.62 26.73 26.41 23.98 26.49 27.00 26.10 25.27 24.71 25.93 25.33 32.63 33.74 31.16 29.75 31.17 32.65 33.83 34.18 35.70 36.73 36.86 37.45 37.57 40.00 39.51 39.97 40.18 40.66 41.72 41.51 42.05 44.45 48.07 52.07 54.16 55.42 56.89 56.89 57.82 58.35
25.31 25.13 23.83 18.64 23.46 23.88 19.21 23.49 24.50 23.80 26.06 24.18 18.04 23.73 27.70 28.38 30.65 29.33 30.39 33.41 34.31 34.58 34.97 35.67 36.06 36.79 39.12 39.39 40.57 38.80 39.88 41.01 40.77 41.11 42.13 43.49 47.01 49.96 52.47 54.46 56.10 56.63 57.29 57.82
24.74 21.75 25.61 20.44 20.27 10.99 22.62 28.41 28.76 26.01 27.01 26.67 26.66 27.46 29.24 29.78 31.75 32.88 34.27 33.77 33.87 35.20 35.80 35.92 35.61 36.64 39.10 39.61 39.68 39.74 40.49 40.47 40.37 40.76 41.54 43.15 44.80 46.83 49.04 55.16 55.12 56.29 57.27 56.92
29.86 25.21 23.21 19.65 15.64 19.67 24.26 28.00 25.89 23.52 24.02 30.11 28.44 29.96 30.64 30.66 29.62 27.98 34.71 35.04 34.64 35.37 36.61 36.45 36.54 36.84 37.92 37.87 39.20 39.22 38.62 38.86 39.53 40.00 41.12 42.42 44.11 44.93 47.76 53.90 54.43 55.07 55.08 55.08
27.61 26.06 22.15 20.49 15.65 14.29 21.71 28.58 32.39 30.03 20.03 31.50 31.76 30.04 28.85 28.59 21.85 24.89 32.03 33.82 35.05 36.33 36.70 36.55 37.08 37.51 37.68 38.33 38.67 38.37 38.02 38.37 38.45 39.91 41.20 42.57 43.93 44.77 46.69 53.72 54.37 54.55 54.07 53.17
17.36 18.68 19.92 21.18 20.07 19.86 27.84 31.45 33.26 17.84 20.12 31.43 31.90 29.84 29.00 26.25 27.38 30.59 33.87 35.72 36.65 36.64 37.63 39.51 38.89 37.86 38.01 38.61 38.66 38.09 37.57 37.44 40.12 41.88 42.02 42.39 43.75 44.78 47.96 52.12 53.74 53.05 51.66 50.33
21.80 18.46 13.60 20.38 18.48 15.37 30.54 30.73 23.81 26.61 31.20 31.73 30.49 30.65 30.49 30.63 32.42 33.22 35.69 35.94 36.47 36.04 37.70 38.62 37.55 37.18 37.97 38.64 38.24 37.93 37.37 40.49 41.79 42.16 41.49 41.71 43.72 46.11 50.66 50.08 50.81 50.43 48.95 47.68
16.73 25.57 22.26 22.92 21.70 30.18 32.83 32.25 34.34 33.04 31.67 31.54 30.58 32.49 32.19 31.43 31.30 34.17 35.03 34.97 35.19 36.00 36.73 37.59 36.78 37.20 38.39 38.70 38.58 39.32 40.36 41.97 42.20 41.73 40.67 41.80 44.04 45.91 50.25 49.14 48.53 48.13 47.94 46.89
22.18 29.12 26.12 26.06 28.57 30.73 32.46 34.81 35.50 35.23 32.57 33.42 33.38 32.77 31.80 30.08 33.67 34.18 33.60 33.64 33.83 34.99 35.65 37.50 37.48 37.33 37.75 39.19 39.81 41.02 41.76 42.45 41.49 40.75 40.25 42.29 43.91 47.84 49.18 49.02 48.77 47.94 47.44 46.52
22.59 23.93 23.31 24.84 28.65 30.37 32.56 33.20 32.51 33.04 33.12 32.84 33.02 32.42 32.95 33.68 33.28 33.30 33.09 33.54 34.12 35.23 36.91 37.45 37.28 37.54 37.88 40.00 40.66 41.53 41.69 41.82 40.74 41.10 40.69 42.45 44.39 48.15 47.68 48.11 48.19 48.03 48.81 48.24
24.55 23.55 20.77 21.22 27.80 28.34 30.72 33.47 34.03 32.29 31.74 32.10 31.04 32.29 34.38 33.97 34.06 34.24 33.47 34.15 34.51 35.82 37.91 37.59 38.02 38.41 39.38 39.63 39.56 40.56 41.47 41.32 41.00 39.65 40.99 42.90 47.56 47.18 46.85 46.26 46.11 48.65 48.81 48.63
MSLP
1013.12 1013.87 1014.08 1013.91 1013.88 1013.85 1014.00 1013.93 1013.53 1012.78 1012.19 1011.85 1011.45 1011.00 1011.06 1010.90 1010.72 1010.76 1010.95 1011.05 1011.65 1012.40 1012.72 1012.51 1012.05 1011.97 1011.98 1011.86 1011.68 1011.31 1010.93 1011.06 1010.63 1010.15 1009.84 1009.33 1008.91 1008.38 1007.90 1007.50 1007.29 1007.32 1007.09 1007.61
1014.05 1014.07 1013.65 1013.74 1013.74 1014.00 1014.09 1013.94 1013.51 1012.82 1012.58 1012.64 1012.00 1011.19 1011.13 1011.01 1011.16 1011.49 1011.91 1012.53 1013.15 1013.75 1013.65 1013.36 1012.94 1012.65 1012.56 1012.38 1011.95 1011.57 1011.50 1011.40 1011.14 1010.68 1010.18 1009.79 1009.21 1008.46 1007.81 1007.09 1006.99 1006.89 1007.26 1007.20
1014.51 1013.97 1013.88 1013.93 1014.14 1014.25 1014.42 1014.42 1014.01 1014.01 1013.40 1013.06 1012.65 1011.57 1011.50 1011.54 1011.63 1012.38 1013.29 1013.87 1014.59 1014.83 1014.54 1014.13 1013.67 1013.34 1012.95 1012.81 1012.54 1012.19 1012.00 1011.56 1011.29 1011.06 1010.60 1009.81 1008.87 1008.57 1007.82 1006.97 1006.62 1006.83 1006.97 1006.82
1014.67 1014.38 1014.40 1014.44 1014.72 1014.84 1015.05 1015.16 1015.00 1014.79 1014.73 1014.53 1014.04 1012.31 1012.86 1012.43 1013.08 1014.28 1015.10 1015.46 1015.75 1015.64 1015.21 1014.80 1014.20 1013.82 1013.56 1013.24 1012.84 1012.51 1012.12 1011.68 1011.30 1011.09 1010.77 1010.30 1009.34 1008.53 1007.97 1007.43 1006.75 1006.69 1006.72 1006.77
1015.46 1015.17 1015.12 1015.40 1015.85 1015.50 1016.13 1016.08 1015.98 1015.64 1015.62 1015.51 1015.13 1015.24 1013.80 1013.92 1015.29 1015.96 1016.41 1016.75 1016.62 1016.34 1015.97 1015.53 1015.06 1014.53 1014.13 1013.64 1013.47 1013.12 1012.60 1011.98 1011.64 1010.99 1010.80 1010.28 1009.48 1008.81 1007.64 1006.92 1006.18 1006.13 1006.41 1006.56
1016.09 1015.56 1015.95 1016.21 1016.12 1016.45 1016.57 1016.47 1016.31 1016.40 1016.68 1016.67 1016.40 1016.98 1015.65 1015.83 1016.30 1016.68 1017.21 1017.07 1016.81 1016.52 1016.06 1015.61 1015.14 1014.62 1014.42 1014.02 1013.75 1013.66 1012.97 1012.49 1011.43 1010.90 1010.73 1010.30 1009.30 1008.38 1007.37 1006.59 1006.01 1005.98 1006.17 1006.39
1017.39 1016.68 1016.75 1016.80 1016.88 1016.99 1017.27 1017.76 1018.47 1018.06 1018.26 1017.84 1017.34 1017.53 1017.10 1017.12 1017.08 1017.24 1017.46 1017.48 1017.12 1016.60 1016.13 1015.67 1015.22 1014.66 1014.30 1013.88 1013.64 1013.78 1012.99 1012.49 1011.21 1011.08 1010.33 1010.12 1009.02 1008.03 1007.18 1006.61 1005.88 1005.87 1005.95 1006.24
1019.13 1018.10 1017.75 1017.96 1018.19 1018.48 1018.59 1019.34 1020.58 1020.03 1019.60 1019.00 1018.95 1018.01 1017.46 1017.97 1017.68 1017.78 1017.63 1017.48 1017.14 1016.84 1016.34 1016.09 1015.69 1015.18 1014.58 1014.19 1014.00 1014.57 1013.07 1012.51 1011.66 1010.56 1010.40 1009.84 1008.57 1007.56 1006.73 1006.34 1005.86 1005.34 1005.49 1005.35
1020.70 1019.70 1018.60 1018.83 1019.02 1019.04 1019.32 1020.08 1020.64 1020.89 1020.34 1020.03 1019.23 1018.17 1018.21 1018.24 1018.25 1018.01 1017.55 1017.03 1016.76 1016.40 1016.30 1016.41 1016.00 1015.18 1014.63 1014.08 1013.92 1013.67 1012.85 1012.33 1011.71 1010.87 1010.44 1009.38 1008.08 1007.13 1006.43 1005.97 1005.92 1005.78 1005.47 1005.23
1022.01 1021.24 1020.49 1020.09 1019.70 1019.86 1020.47 1020.77 1020.94 1021.48 1021.33 1020.69 1019.74 1019.18 1018.73 1018.86 1019.12 1018.37 1017.61 1017.26 1016.93 1016.55 1016.38 1016.30 1015.80 1015.35 1014.97 1014.24 1013.82 1013.50 1013.01 1012.76 1012.04 1011.12 1010.17 1009.10 1007.70 1006.90 1006.28 1006.01 1005.93 1005.94 1005.78 1005.58
1022.70 1022.68 1021.87 1021.36 1021.31 1021.13 1021.15 1021.44 1021.84 1022.35 1022.35 1021.94 1021.10 1019.70 1019.25 1019.06 1018.66 1018.69 1017.97 1017.35 1016.87 1016.50 1016.27 1016.12 1015.78 1015.48 1015.10 1014.46 1014.18 1013.79 1013.37 1012.68 1011.83 1011.12 1010.40 1008.68 1007.52 1007.01 1006.39 1006.11 1006.16 1006.26 1006.26 1005.86
1023.38 1023.43 1023.35 1022.60 1021.90 1021.67 1021.96 1022.31 1022.94 1023.80 1023.60 1023.26 1022.57 1019.71 1018.69 1018.68 1018.50 1018.26 1017.65 1016.96 1016.81 1016.34 1016.24 1016.17 1015.71 1015.34 1015.04 1014.71 1014.34 1014.09 1013.77 1012.49 1011.81 1010.77 1009.95 1008.64 1007.83 1007.21 1006.76 1006.27 1006.26 1006.24 1006.15 1006.22
1023.84 1024.29 1024.46 1023.24 1022.82 1022.26 1022.57 1022.92 1023.38 1023.89 1023.92 1022.88 1022.31 1019.88 1018.88 1018.57 1018.25 1017.66 1017.14 1016.55 1016.49 1016.25 1016.07 1015.95 1015.86 1015.46 1014.88 1014.56 1014.24 1013.67 1012.98 1011.81 1011.46 1011.09 1010.07 1008.88 1008.12 1007.36 1006.80 1006.74 1006.24 1005.96 1006.06 1006.39
1024.27 1025.06 1025.19 1024.80 1023.92 1023.83 1023.18 1022.89 1023.24 1023.87 1023.63 1022.27 1020.95 1019.68 1018.72 1018.36 1017.80 1017.09 1016.85 1016.40 1016.32 1016.12 1015.85 1015.76 1015.72 1015.52 1015.16 1014.81 1014.37 1013.81 1012.79 1012.60 1012.18 1011.02 1010.10 1009.27 1008.46 1007.45 1006.70 1006.22 1005.73 1005.57 1005.96 1006.17
1024.84 1025.39 1025.36 1024.66 1024.30 1024.02 1023.42 1022.95 1022.10 1022.49 1021.91 1022.11 1019.67 1019.34 1017.91 1017.56 1016.98 1016.65 1016.23 1016.03 1016.16 1015.95 1015.63 1015.40 1015.32 1015.15 1014.95 1014.72 1014.54 1013.81 1013.34 1012.77 1012.11 1011.13 1010.38 1009.52 1008.62 1007.63 1006.28 1005.76 1005.33 1005.22 1005.67 1006.09
1025.58 1025.30 1025.47 1024.44 1024.17 1023.71 1022.61 1021.90 1021.13 1020.69 1020.15 1019.92 1019.26 1018.47 1017.32 1016.61 1016.24 1016.32 1016.33 1016.08 1016.08 1015.82 1015.40 1015.10 1014.96 1014.76 1014.67 1014.43 1014.19 1013.77 1013.11 1012.80 1012.17 1011.30 1010.71 1009.73 1008.66 1007.70 1007.02 1005.96 1005.18 1004.93 1005.32 1005.71
1025.72 1025.89 1025.71 1024.04 1023.83 1023.15 1021.99 1020.15 1019.73 1019.38 1018.95 1018.82 1018.60 1017.63 1016.87 1016.38 1016.25 1016.36 1016.29 1016.21 1015.97 1015.70 1015.37 1014.98 1014.71 1014.50 1014.24 1014.03 1013.77 1013.57 1013.03 1012.66 1012.20 1011.55 1010.80 1009.96 1008.81 1007.67 1006.72 1006.50 1005.31 1005.05 1005.16 1005.49
1025.22 1025.67 1025.72 1024.39 1023.95 1022.51 1020.18 1019.08 1018.60 1018.36 1017.93 1017.81 1017.56 1017.06 1016.60 1016.53 1016.62 1016.60 1016.37 1016.24 1016.01 1015.63 1015.25 1014.82 1014.38 1014.06 1013.91 1013.90 1013.87 1013.64 1013.04 1012.55 1012.34 1011.64 1010.94 1010.23 1009.19 1008.13 1006.96 1005.73 1004.65 1004.96 1005.50 1005.93
1024.37 1025.35 1025.25 1024.61 1023.72 1021.84 1019.68 1018.23 1017.83 1017.54 1017.47 1017.20 1017.14 1016.86 1016.75 1016.81 1017.06 1016.79 1016.27 1016.12 1015.90 1015.47 1015.01 1014.51 1013.98 1013.70 1013.83 1013.97 1013.76 1013.44 1013.16 1012.77 1012.14 1011.59 1010.89 1010.16 1009.59 1008.43 1007.35 1005.84 1005.01 1005.67 1005.94 1006.50
1024.72 1024.79 1025.01 1024.57 1023.57 1021.84 1019.23 1018.11 1017.63 1017.33 1017.26 1016.89 1016.74 1016.69 1016.77 1016.86 1017.34 1017.03 1016.40 1016.06 1015.58 1015.09 1014.67 1014.15 1013.58 1013.50 1013.81 1013.67 1013.43 1013.22 1012.82 1012.55 1012.06 1011.28 1010.72 1010.17 1009.28 1008.50 1007.33 1005.63 1005.54 1006.09 1006.40 1006.83
1025.70 1025.25 1024.76 1023.91 1022.80 1021.11 1019.26 1018.31 1017.55 1017.72 1017.78 1016.74 1016.60 1016.65 1016.69 1017.00 1017.05 1016.67 1016.36 1015.86 1015.35 1015.00 1014.67 1014.12 1013.88 1013.86 1013.65 1013.45 1013.23 1013.01 1012.58 1012.16 1011.62 1011.01 1010.59 1010.15 1009.46 1008.55 1007.28 1006.23 1006.25 1006.81 1007.54 1008.34
1026.66 1026.30 1025.05 1023.97 1022.46 1021.05 1019.11 1018.32 1018.34 1018.13 1017.18 1016.69 1016.51 1016.56 1016.59 1016.59 1016.54 1016.38 1016.14 1015.91 1015.49 1015.13 1014.74 1014.30 1014.03 1013.79 1013.37 1013.07 1012.85 1012.45 1012.06 1011.60 1011.22 1010.84 1010.40 1009.97 1009.30 1008.54 1007.37 1006.85 1007.03 1007.42 1008.32 1009.10
1026.29 1025.43 1024.95 1024.54 1022.38 1020.20 1019.64 1018.97 1017.97 1017.59 1017.09 1016.48 1016.31 1016.32 1016.43 1016.43 1016.42 1016.31 1016.17 1015.91 1015.50 1015.05 1014.62 1014.18 1013.88 1013.47 1012.89 1012.54 1012.23 1011.69 1011.14 1010.99 1010.96 1010.52 1010.11 1009.68 1009.06 1008.50 1007.80 1007.63 1007.84 1008.29 1009.05 1010.05
1025.80 1024.86 1024.35 1023.61 1021.10 1020.34 1019.28 1018.18 1017.41 1016.72 1016.40 1016.01 1015.92 1016.05 1016.18 1016.27 1016.29 1016.20 1016.08 1015.88 1015.46 1014.82 1014.34 1013.85 1013.42 1012.90 1012.28 1011.88 1011.62 1011.08 1010.50 1010.30 1010.31 1010.07 1009.83 1009.48 1009.05 1008.21 1007.91 1008.00 1008.20 1009.04 1009.68 1010.58
1025.43 1024.69 1023.59 1022.28 1020.86 1019.79 1018.51 1017.78 1017.17 1016.15 1015.72 1015.75 1015.78 1015.94 1016.06 1016.16 1016.15 1016.07 1015.96 1015.76 1015.18 1014.57 1014.02 1013.55 1013.07 1012.42 1011.59 1010.89 1010.37 1009.80 1009.41 1009.39 1009.40 1009.38 1009.31 1009.09 1008.81 1008.26 1008.36 1008.42 1008.89 1009.38 1010.07 1010.29
1023.96 1023.24 1022.83 1021.11 1020.03 1019.45 1018.34 1017.47 1016.99 1016.46 1016.17 1015.99 1015.96 1016.01 1016.08 1016.11 1016.07 1015.94 1015.90 1015.48 1014.97 1014.40 1013.90 1013.23 1012.58 1011.90 1010.80 1009.87 1008.81 1008.05 1007.72 1007.90 1008.31 1008.60 1008.79 1008.67 1008.31 1008.64 1008.70 1009.19 1010.04 1010.64 1010.95 1011.61
Wind_Speed
2 3 5 8 6 6 5 5 8 6 7 6 8 12 6 7 7 9 9 7 7 8 6 6 7 7 7 7 8 9 9 7 5 4 7 4 4 6 6 6 9 8 6 4
6 5 7 7 7 5 6 8 8 6 3 6 8 17 8 6 4 2 5 8 8 6 8 8 9 9 9 8 9 9 8 8 6 4 4 3 4 5 7 6 7 6 6 6
4 6 7 2 4 6 3 7 7 9 5 6 8 9 4 3 7 9 12 11 8 7 7 7 9 8 10 11 11 10 9 8 7 7 5 5 6 4 4 5 4 4 6 6
5 4 7 9 5 6 5 7 6 8 7 7 4 16 12 6 2 11 8 8 7 7 7 9 11 13 13 11 10 11 12 10 9 7 6 5 7 10 6 7 4 6 10 9
7 6 7 5 4 4 3 6 6 7 6 4 3 4 6 7 6 5 7 9 8 7 8 9 11 14 14 12 13 10 10 10 10 7 6 6 7 8 7 9 9 9 7 7
5 6 4 2 1 8 6 9 7 4 1 3 1 2 5 3 1 3 3 5 6 7 7 7 6 8 11 13 15 15 11 11 10 8 8 8 7 10 8 9 5 3 6 4
6 3 3 5 2 5 9 7 7 7 3 8 8 10 6 5 6 3 4 7 7 6 6 7 8 10 11 13 18 19 17 16 12 9 8 9 7 9 9 8 6 6 8 6
2 6 3 5 3 4 3 5 4 7 4 13 8 7 4 2 6 6 6 5 9 8 7 8 7 7 5 5 6 19 16 15 13 9 10 9 7 5 6 5 3 5 7 8
6 5 7 9 3 5 4 1 3 6 10 5 6 5 2 1 7 7 6 5 5 6 10 10 8 7 9 8 10 12 13 14 12 9 9 10 7 7 8 4 2 4 3 6
3 8 3 2 4 4 2 4 4 3 5 7 6 5 3 5 11 8 7 8 7 7 5 5 8 8 9 9 10 11 11 11 11 9 8 9 8 7 7 2 1 2 2 8
3 1 4 3 3 8 5 5 3 2 2 6 7 5 3 6 7 6 8 9 8 5 6 6 7 8 9 8 8 8 8 8 9 10 9 9 12 8 7 1 2 4 4 5
2 2 5 6 9 6 4 0 3 1 8 5 5 15 5 6 5 5 8 6 6 5 4 6 7 8 7 6 6 5 6 7 9 11 11 10 10 9 7 4 5 7 5 2
3 2 5 10 6 5 1 2 4 3 1 13 8 9 6 6 7 8 9 8 7 5 5 6 6 6 8 6 6 6 9 11 12 12 12 12 11 13 7 7 8 7 7 3
2 2 7 8 12 2 14 12 13 7 5 9 13 18 14 10 13 10 9 8 7 6 6 5 5 5 6 7 6 6 8 9 11 12 12 12 13 13 11 11 8 8 9 6
3 5 5 10 12 12 16 18 23 12 16 9 21 13 19 12 14 6 8 5 6 6 6 6 5 5 3 4 5 7 7 8 12 12 13 13 13 12 14 8 4 6 10 9
3 8 4 22 16 14 19 18 19 18 15 9 15 17 14 15 8 5 5 4 4 6 6 6 5 5 4 3 5 6 9 8 10 11 12 13 14 11 10 10 8 7 9 11
5 4 8 20 8 7 8 11 9 5 6 5 5 8 5 2 1 1 1 2 6 7 7 7 7 6 5 4 5 6 7 7 8 11 11 13 14 14 13 6 8 7 10 12
6 5 6 9 2 5 7 8 10 10 6 6 6 7 5 1 2 1 2 4 7 8 8 9 7 7 5 1 3 5 7 9 7 11 9 11 14 15 17 3 8 9 9 12
12 4 4 4 3 7 8 7 2 3 4 3 1 3 3 2 1 3 3 4 6 7 8 8 8 7 1 2 5 5 5 7 8 10 11 12 12 15 15 8 3 8 9 12
3 3 4 2 3 6 3 1 2 2 3 3 1 3 1 2 3 5 6 6 8 8 8 8 8 2 2 5 5 6 6 7 9 10 12 12 13 13 15 5 6 8 11 11
4 4 8 9 7 7 7 8 2 1 6 3 3 0 1 2 5 6 7 7 6 5 7 6 5 5 6 6 6 7 6 7 9 11 12 12 13 14 15 3 7 11 12 13
5 4 3 3 3 5 4 1 3 5 5 3 1 3 2 3 5 4 6 7 7 7 7 8 6 6 7 7 6 8 7 10 10 11 11 12 12 9 7 8 7 14 14 14
4 3 3 4 6 7 11 8 11 6 8 5 3 4 4 4 4 6 5 7 7 7 7 6 6 8 8 7 6 13 13 11 11 11 11 10 11 10 5 9 9 11 13 12
5 2 4 6 5 8 18 19 17 14 9 6 4 4 2 2 4 5 6 6 6 6 7 5 7 11 12 9 12 14 13 10 10 10 10 8 8 6 4 7 8 10 10 11
7 3 8 12 15 14 12 6 10 12 3 3 2 1 1 0 4 4 5 6 7 7 6 7 10 12 14 18 16 15 14 11 10 9 6 7 6 4 5 7 8 9 8 14
6 13 6 9 8 7 10 9 7 4 1 2 1 1 1 2 5 4 6 6 6 7 9 10 12 15 19 18 19 18 15 12 10 10 7 6 4 6 6 10 10 15 15 17
Wind_Direction
340 53 236 245 210 228 243 238 250 256 261 293 283 289 292 275 283 293 287 311 108 84 22 22 36 33 36 36 28 19 17 1 339 338 347 327 315 310 290 252 246 230 220 99
15 256 257 258 264 263 278 290 286 277 301 325 291 291 266 259 273 314 341 85 71 56 31 19 23 23 22 12 8 12 11 351 340 326 314 289 282 281 278 271 251 216 165 161
174 259 330 3 334 308 274 277 295 295 327 246 299 297 110 301 287 58 53 73 62 57 41 18 18 12 15 12 1 357 343 350 342 334 309 310 329 295 284 288 287 164 169 157
266 309 7 350 340 333 328 347 316 305 353 302 79 294 309 256 351 64 37 50 50 36 25 22 16 13 8 359 352 351 345 340 334 331 323 309 340 324 299 289 265 180 192 191
263 329 339 35 347 350 330 341 318 279 270 317 230 258 292 26 45 50 37 31 22 22 23 13 10 3 353 351 339 332 332 329 312 325 321 304 328 327 302 296 279 188 197 182
247 281 51 50 316 68 311 347 322 333 20 286 53 40 287 330 171 107 9 351 5 1 355 348 343 360 357 351 347 337 324 321 313 328 315 301 302 322 317 306 283 197 178 172
336 347 156 46 30 357 11 20 339 326 7 268 341 333 276 59 57 105 39 16 357 1 353 337 343 7 352 355 348 331 333 315 325 309 317 295 293 320 313 307 280 177 177 181
14 323 15 348 76 290 273 114 174 275 255 296 310 252 206 65 56 38 46 26 356 342 333 327 334 320 317 303 328 308 317 312 310 323 308 289 293 320 317 303 277 186 179 157
354 275 331 52 349 36 310 199 242 260 279 275 231 277 186 135 27 0 338 342 347 4 354 345 317 333 320 317 307 301 302 310 308 306 298 298 304 325 321 272 203 224 162 140
321 293 318 335 12 2 78 262 318 258 269 277 277 271 289 15 347 315 326 329 311 294 293 290 323 329 317 314 313 310 310 305 296 301 310 313 316 327 324 315 295 259 210 145
22 187 285 23 57 288 330 313 304 299 255 284 300 265 185 188 226 307 301 292 285 307 318 315 317 321 328 326 329 325 316 318 333 333 305 325 343 331 337 278 163 258 277 186
340 267 288 260 262 273 216 170 89 170 292 263 260 278 225 188 207 256 277 282 276 271 283 316 318 317 327 338 319 326 322 342 338 340 328 332 340 332 335 310 217 210 227 278
334 300 335 320 352 359 342 220 247 212 132 264 263 277 212 236 257 265 253 270 258 266 263 303 305 317 327 328 325 333 343 355 347 334 335 336 332 335 307 305 272 198 196 206
76 239 188 246 260 240 294 281 282 200 245 275 253 277 270 260 270 260 268 256 248 260 245 265 285 297 307 327 336 321 347 346 329 330 336 335 327 323 311 293 260 181 180 173
113 243 240 255 266 275 266 276 282 262 251 239 279 266 274 269 268 252 256 231 239 279 282 278 287 293 307 338 325 338 342 345 332 334 333 325 319 316 316 309 253 160 168 160
214 267 287 288 286 273 276 268 263 266 270 244 262 277 275 268 271 251 282 252 294 314 308 303 286 305 324 310 309 327 346 342 331 334 330 321 321 323 304 312 309 153 141 138
207 240 274 274 292 301 280 244 245 260 237 215 262 259 304 6 113 38 88 315 283 290 296 302 277 263 230 255 308 321 323 329 333 325 327 324 327 327 322 235 293 145 134 128
226 175 239 274 327 253 241 275 250 243 263 280 289 293 287 22 118 168 252 281 308 307 301 309 285 271 242 290 295 297 323 322 331 319 321 325 329 327 326 216 243 110 127 124
206 167 260 252 200 295 294 298 283 192 291 315 117 350 6 38 162 302 286 310 291 290 280 277 271 259 182 319 285 309 317 317 314 313 326 326 325 322 313 279 148 100 108 121
42 181 171 180 247 251 250 316 351 75 284 260 202 15 29 40 18 265 300 305 296 312 309 301 311 337 2 301 323 306 305 330 312 325 324 319 318 315 306 302 106 91 90 88
318 309 228 244 253 286 265 301 344 82 242 301 329 126 160 191 204 250 295 316 318 321 313 316 334 312 286 294 297 288 286 311 310 319 317 311 309 309 307 108 107 102 99 95
282 325 293 278 243 264 300 301 338 259 296 286 357 215 241 262 300 310 324 332 330 319 319 301 293 293 290 286 274 273 280 292 317 306 307 302 302 304 299 84 106 112 107 105
284 208 291 194 257 296 315 282 278 265 256 248 212 227 238 291 327 323 319 321 310 303 299 298 285 282 279 269 281 302 300 298 301 290 291 293 303 300 182 120 102 104 113 114
288 280 259 317 257 273 297 294 287 288 244 232 221 198 249 332 328 305 327 313 305 297 295 285 292 294 284 285 303 289 283 285 281 274 272 280 291 289 157 119 121 116 120 116
224 321 264 271 279 284 280 277 289 291 219 160 157 191 88 16 315 301 309 305 296 297 300 301 303 301 299 307 298 288 281 271 257 250 241 264 280 124 129 103 118 123 130 136
213 246 225 254 255 244 263 288 308 333 285 229 169 49 347 268 304 306 315 298 300 309 320 316 316 311 308 303 292 283 268 246 222 221 221 230 167 119 113 102 87 70 104 120